N7LK Weather Reports


Display with metric or nautical units.
time (UTC)temp
F
wind
direction
speed
MPH
gust
MPH
rain 1hr
in
rain 24hr
in
rain mn
in
humidity
%
barometer
mb
20260901014401 87 82 0.0 2.0 0.00 0.26 0.22 45 1010.2
20260901013345 88 88 1.0 2.0 0.00 0.26 0.22 44 1010.1
20260901012331 88 142 2.0 5.0 0.00 0.26 0.22 44 1010.3
20260901011337 88 86 1.0 4.0 0.00 0.26 0.22 44 1010.1
20260901010348 89 124 3.0 5.0 0.00 0.26 0.22 43 1010.4
20260901005354 89 167 3.0 7.0 0.00 0.26 0.22 42 1010.3
20260901004340 89 158 3.0 7.0 0.00 0.26 0.22 42 1010.2
20260901003328 90 53 4.0 8.0 0.00 0.26 0.22 43 1010.0
20260901002334 90 107 3.0 7.0 0.00 0.26 0.22 42 1010.3
20260901001345 90 65 1.0 6.0 0.00 0.26 0.22 42 1010.5
20260901000353 90 117 4.0 11.0 0.00 0.26 0.22 43 1010.4
20260831235337 90 86 3.0 11.0 0.00 0.26 0.22 44 1010.6
20260831234345 90 32 2.0 8.0 0.00 0.26 0.22 45 1010.6
20260831233337 90 75 4.0 7.0 0.00 0.26 0.22 45 1010.7
20260831232345 89 39 3.0 10.0 0.00 0.26 0.22 46 1010.9
20260831231331 89 92 5.0 9.0 0.00 0.26 0.22 46 1010.9
20260831230338 89 111 3.0 10.0 0.00 0.26 0.22 46 1010.9
20260831225329 88 60 4.0 12.0 0.00 0.26 0.22 47 1011.0
20260831224335 89 86 4.0 14.0 0.00 0.26 0.22 46 1011.0
20260831223342 89 165 6.0 11.0 0.00 0.26 0.22 45 1011.1
20260831222330 88 159 5.0 11.0 0.00 0.26 0.22 47 1011.3
20260831221342 88 78 4.0 10.0 0.00 0.26 0.22 48 1011.6
20260831220330 87 203 5.0 11.0 0.00 0.26 0.22 48 1011.9
20260831215337 87 167 6.0 14.0 0.00 0.26 0.22 48 1012.2
20260831214329 87 173 6.0 15.0 0.00 0.26 0.22 48 1012.4
20260831213356 87 156 5.0 14.0 0.00 0.26 0.22 49 1012.7
20260831212342 87 53 7.0 13.0 0.00 0.26 0.22 50 1013.0
20260831211331 86 175 5.0 15.0 0.00 0.26 0.22 53 1013.2
20260831210336 86 128 4.0 14.0 0.00 0.26 0.22 54 1013.3
20260831205348 86 107 9.0 17.0 0.00 0.26 0.22 52 1013.6
20260831204333 86 160 5.0 14.0 0.00 0.26 0.22 52 1013.7
20260831203340 86 163 8.0 15.0 0.00 0.26 0.22 51 1013.8
20260831202407 85 163 6.0 16.0 0.00 0.26 0.22 53 1013.9
20260831201337 85 133 7.0 12.0 0.00 0.26 0.22 54 1013.9
20260831200344 85 92 5.0 10.0 0.00 0.26 0.22 57 1014.0
20260831195329 85 145 7.0 14.0 0.00 0.26 0.22 56 1013.9
20260831194336 83 188 7.0 12.0 0.00 0.26 0.22 58 1014.0
20260831193341 83 146 5.0 13.0 0.00 0.26 0.22 59 1014.1
20260831192332 82 101 7.0 14.0 0.00 0.26 0.22 60 1014.1
20260831191339 82 98 8.0 12.0 0.00 0.26 0.22 61 1014.2
20260831190326 81 137 5.0 12.0 0.00 0.26 0.22 67 1014.4
20260831185338 80 71 3.0 11.0 0.00 0.26 0.22 71 1014.6
20260831184345 80 67 2.0 6.0 0.00 0.26 0.22 73 1014.5
20260831183331 79 66 3.0 10.0 0.00 0.26 0.22 74 1014.5
20260831182338 79 142 3.0 10.0 0.00 0.26 0.22 75 1014.4
20260831181328 79 105 5.0 11.0 0.00 0.26 0.22 74 1014.6
20260831180336 78 119 6.0 11.0 0.00 0.26 0.22 74 1014.6
20260831175340 78 171 4.0 13.0 0.00 0.26 0.22 75 1014.6
20260831174326 78 90 5.0 10.0 0.00 0.26 0.22 76 1014.6
20260831173337 78 113 5.0 11.0 0.00 0.26 0.22 77 1014.7
20260831172345 78 114 4.0 10.0 0.00 0.26 0.22 78 1014.9
20260831171331 77 65 2.0 7.0 0.00 0.26 0.22 80 1014.9
20260831170358 77 62 3.0 9.0 0.00 0.26 0.22 82 1014.7
20260831165404 76 93 2.0 11.0 0.00 0.26 0.22 82 1014.8
20260831164353 76 66 1.0 9.0 0.00 0.26 0.22 84 1014.7
20260831163339 75 114 2.0 13.0 0.00 0.26 0.22 85 1014.7
20260831162345 75 70 2.0 8.0 0.00 0.26 0.22 86 1014.5
20260831161332 74 104 2.0 9.0 0.02 0.26 0.22 85 1014.4
20260831160339 74 115 1.0 9.0 0.06 0.26 0.22 84 1014.5
20260831155350 74 71 3.0 8.0 0.15 0.26 0.22 84 1014.4
20260831154336 74 93 6.0 13.0 0.21 0.26 0.22 85 1014.4
20260831153341 74 66 5.0 11.0 0.21 0.26 0.22 85 1014.2
20260831152329 74 88 5.0 15.0 0.21 0.26 0.22 85 1014.3
20260831151339 75 56 8.0 13.0 0.19 0.24 0.20 84 1014.2
20260831150326 76 119 7.0 12.0 0.14 0.19 0.15 81 1014.5
20260831145332 78 116 4.0 12.0 0.06 0.11 0.07 78 1014.3
20260831144359 78 119 4.0 10.0 0.01 0.05 0.01 74 1013.9
20260831143348 79 142 5.0 10.0 0.01 0.05 0.01 72 1013.9
20260831142333 79 93 7.0 13.0 0.01 0.05 0.01 70 1013.1
20260831141400 79 126 4.0 11.0 0.01 0.05 0.01 71 1012.8
20260831140345 79 144 4.0 9.0 0.01 0.05 0.01 72 1012.6
20260831135351 79 172 3.0 8.0 0.01 0.05 0.01 72 1012.5
20260831134340 81 109 4.0 10.0 0.00 0.04 0.00 68 1012.3
20260831133407 82 121 4.0 10.0 0.00 0.04 0.00 63 1012.2
20260831132330 82 93 3.0 8.0 0.00 0.04 0.00 61 1011.9
20260831131336 82 113 3.0 11.0 0.00 0.04 0.00 60 1011.6
20260831130328 82 99 5.0 9.0 0.00 0.04 0.00 59 1011.2
20260831125335 82 98 2.0 9.0 0.00 0.04 0.00 58 1011.1
20260831124342 81 109 4.0 8.0 0.00 0.04 0.00 59 1011.2
20260831123328 81 116 2.0 7.0 0.00 0.04 0.00 62 1011.0
20260831122337 81 111 0.0 0.0 0.00 0.04 0.00 64 1010.9
20260831121343 81 132 0.0 0.0 0.00 0.04 0.00 64 1010.8
20260831120330 81 81 0.0 0.0 0.00 0.04 0.00 63 1010.5
20260831115336 81 81 0.0 6.0 0.00 0.04 0.00 63 1010.5
20260831114327 80 27 0.0 0.0 0.00 0.04 0.00 64 1010.3
20260831113353 80 320 0.0 0.0 0.00 0.04 0.00 63 1010.3
20260831112338 80 320 0.0 0.0 0.00 0.04 0.00 64 1010.3
20260831111344 80 320 0.0 0.0 0.00 0.04 0.00 64 1010.0
20260831110356 80 320 0.0 0.0 0.00 0.04 0.00 63 1009.7
20260831105403 81 252 0.0 1.0 0.00 0.04 0.00 62 1009.5
20260831104329 81 252 0.0 0.0 0.00 0.04 0.00 62 1009.4
20260831103336 81 252 0.0 1.0 0.00 0.04 0.00 61 1009.1
20260831102327 81 252 0.0 1.0 0.00 0.04 0.00 61 1009.1
20260831101335 81 207 0.0 1.0 0.00 0.04 0.00 61 1009.2
20260831100341 81 113 0.0 3.0 0.00 0.04 0.00 60 1009.3
20260831095327 81 163 1.0 7.0 0.00 0.04 0.00 60 1009.3
20260831094334 81 182 2.0 6.0 0.00 0.04 0.00 61 1009.4
20260831093344 82 167 1.0 8.0 0.00 0.04 0.00 61 1009.7
20260831092332 82 187 4.0 7.0 0.00 0.04 0.00 61 1009.7
20260831091339 82 144 3.0 10.0 0.00 0.04 0.00 62 1009.9
20260831090329 82 163 4.0 11.0 0.00 0.04 0.00 61 1009.7
20260831085356 82 173 3.0 7.0 0.00 0.04 0.00 60 1009.6
20260831084401 82 76 1.0 6.0 0.00 0.04 0.00 58 1009.5
20260831083328 82 156 4.0 6.0 0.00 0.04 0.00 59 1009.6
20260831082355 82 180 2.0 6.0 0.00 0.04 0.00 60 1009.7
20260831081326 82 127 2.0 5.0 0.00 0.04 0.00 59 1009.7
20260831080353 82 53 6.0 12.0 0.00 0.04 0.00 59 1009.8
20260831075338 81 340 5.0 11.0 0.00 0.04 0.00 61 1009.6
20260831074406 81 345 5.0 14.0 0.00 0.04 0.00 62 1009.6
20260831073331 81 334 8.0 17.0 0.00 0.04 0.00 64 1009.7
20260831072341 81 348 9.0 18.0 0.00 0.04 0.00 66 1009.8
20260831071347 81 360 7.0 20.0 0.00 0.04 0.00 67 1009.9
20260831070332 80 327 6.0 16.0 0.01 0.04 0.00 67 1009.9
20260831065400 80 331 12.0 24.0 0.01 0.04 0.04 68 1009.8
20260831064329 80 255 10.0 21.0 0.01 0.04 0.04 70 1009.6
20260831063335 80 24 11.0 25.0 0.02 0.04 0.04 70 1009.3
20260831062342 81 317 10.0 21.0 0.02 0.04 0.04 67 1009.6
20260831061329 82 11 12.0 23.0 0.03 0.04 0.04 66 1009.3
20260831060340 82 355 8.0 17.0 0.02 0.03 0.03 63 1009.2
20260831055327 82 42 0.0 3.0 0.03 0.03 0.03 61 1009.1
20260831054334 83 268 1.0 13.0 0.03 0.03 0.03 59 1009.2
20260831053342 82 242 4.0 12.0 0.02 0.02 0.02 60 1009.2
20260831052353 82 239 4.0 16.0 0.02 0.02 0.02 62 1009.4
20260831051339 82 225 11.0 23.0 0.01 0.01 0.01 62 1009.8
20260831050326 82 236 13.0 29.0 0.01 0.01 0.01 61 1010.0
20260831045333 84 232 12.0 23.0 0.00 0.00 0.00 58 1009.7
20260831044400 85 175 11.0 29.0 0.00 0.00 0.00 57 1008.9
20260831043329 87 186 12.0 23.0 0.00 0.00 0.00 55 1008.7
20260831042336 90 153 7.0 19.0 0.00 0.00 0.00 55 1007.8
20260831041402 93 211 11.0 22.0 0.00 0.00 0.00 43 1007.6
20260831040326 95 213 12.0 21.0 0.00 0.00 0.00 38 1007.7
20260831035337 99 170 13.0 27.0 0.00 0.00 0.00 33 1007.5
20260831034344 101 272 0.0 8.0 0.00 0.00 0.00 29 1007.1
20260831033332 101 312 1.0 7.0 0.00 0.00 0.00 29 1006.7
20260831032358 101 279 2.0 5.0 0.00 0.00 0.00 29 1006.8
20260831031347 101 316 1.0 3.0 0.00 0.00 0.00 29 1006.7
20260831030334 101 284 1.0 4.0 0.00 0.00 0.00 29 1006.5
20260831025341 101 258 3.0 8.0 0.00 0.00 0.00 29 1006.5
20260831024329 101 260 2.0 5.0 0.00 0.00 0.00 30 1006.4
20260831023340 101 278 2.0 4.0 0.00 0.00 0.00 30 1006.2
20260831022406 101 303 3.0 10.0 0.00 0.00 0.00 30 1006.1
20260831021331 102 300 1.0 5.0 0.00 0.00 0.00 30 1005.9
20260831020337 102 319 3.0 5.0 0.00 0.00 0.00 30 1005.8
20260831015348 102 313 2.0 8.0 0.00 0.00 0.00 30 1005.5